Location: Jetmore Oil Field
(38.1181°N, 99.9337°W)
Time: 19:41:05
(UTC+00:00)

CSL-04 Rocket - Pass Details

Date: 17 February 2020
Orbit: 805 x 861 km, 99.0° (Epoch: 05 April)

Event Time Altitude Azimuth Distance (km) Brightness Sun altitude
Rises 01:40:15 0° 174° (S) 3,421 6.8 -16.6°
Reaches altitude 10° 01:42:39 10° 178° (S) 2,489 6.1 -17.1°
Maximum altitude 01:48:07 61° 258° (WSW) 969 4.3 -18.1°
Drops below altitude 10° 01:53:36 10° 339° (NNW) 2,492 6.4 -19.2°
Sets 01:56:01 0° 343° (NNW) 3,426 7.1 -19.7°
